Rbgn^[z[y[W
メイン
   新天体発見情報
     Comet C/2025 J1 (Borisov)
投稿するにはまず登録を

フラット表示 前のトピック | 次のトピック
投稿者 スレッド
佐藤裕久
投稿日時: 2025-5-20 8:01
モデレータ
登録日: 2005-6-12
居住地: 日本
投稿: 2689
オンライン
Comet C/2025 J1 (Borisov)

Gennady Borisov (Nauchnij,クリミア)の通報によると、5月2.98-3.01日UT、0.50-m f/1.9 
アストログラフで得たCCD画像から彗星を発見した。この天体は拡散した約1".5のコマとp.a. 
250-260°にわたって7" の尾が見えた。0'.25の円形範囲で測定したG全光度は19.3等であった。 
追加画像ではp.a.210-240°に9"の尾があった。
小惑星センターのPCCP webpageに公表後、D. Buczynski (Portmahomack, スコットランド)、
5月5日UT、N. Jamesと彼が、0.35m f/6 反射望遠鏡鏡で得た画像で西に少し伸びていると書き
込んだ)や、P. Birtwhistle(Great Shefford, Berkshire, イングランド、5月5.9日、0.41-m
反射望遠鏡鏡で得た160枚の12-秒露出で、非常に集光した4" の頭部とp.a. 230°に20" の尾が
見えた)らCCD位置観測者によって彗星状と観測された。
佐藤英貴氏(東京都文京区)は、5月7.34-7.35日、Sierra Remote天文台 (Auberry近郊, カリフォ
ルニア州, 米国, 遠隔操作)の0.61-m f/6.5 アストログラフで、22枚のスタックした60-秒CCD
露出では、恒星のように見えるだけであった。2".9の円形範囲で測定した光度は19.9等であった。

彗星機能の報告は次のとおり、

OC   Date        Reporter            Coma    Tail   PA   Comet     Date
                                                        (T/P)   Reported
L51  2025-05-02  G. Borisov          1".5      7"  250    P   2025-05-03.09
L51  2025-05-03  G. Borisov          1".5      9"  210    T   2025-05-03.87
J95  2025-05-05  P. Birtwhistle      4"       20"  230    T   2025-05-05.91
L51  2025-05-15  G. Borisov          6"       10"  190    T   2025-05-16.74

発見位置は次のとおり(PCCP gb00795)、

     2025 UT             R.A. (2000) Decl.       Mag.   Observer
     May   2.97693   19 39 00.47   +84 32 25.8   19.3   Borisov
           2.99154   19 38 59.84   +84 32 40.3   19.4     "
           3.00620   19 38 59.22   +84 32 54.3   19.2     "

MPCの楕円軌道要素は次のとおり、

Orbital elements:
    C/2025 J1 (Borisov)                                                         
Epoch 2025 May 5.0 TT = JDT 2460800.5                                           
T 2026 June 11.77130 TT                                 Veres                   
q   3.5731695            (2000.0)            P               Q                  
z  +0.0001254      Peri.  166.75770     -0.08954099     +0.07608968             
 +/-0.0006237      Node   273.99849     +0.79881472     +0.60101607             
e   0.9995519      Incl.   95.44029     +0.59487600     -0.79560672             
From 136 observations 2025 Apr. 29-May 16, mean residual 0".4.                  
                                                                                
Ephemeris:
Date    TT    R. A. (2000) Decl.     Delta      r    Elong.  Phase   m1
2025 04 17    19 33 58.7 +80 08 47   5.2131  5.1356    80.0    11.1  19.8
...
2025 05 02    19 39 22.1 +84 16 31   5.1919  5.0473    76.2    11.2  19.7
...
2025 05 10    19 29 27.9 +86 25 01   5.1843  5.0006    74.0    11.2  19.7
...
2025 05 16    18 55 39.2 +87 56 48   5.1795  4.9659    72.3    11.2  19.6
2025 05 17    18 43 29.4 +88 11 11   5.1787  4.9601    72.0    11.2  19.6
2025 05 18    18 27 22.8 +88 25 02   5.1779  4.9543    71.7    11.2  19.6
...
2025 05 24    13 41 31.8 +89 09 00   5.1734  4.9198    70.0    11.2  19.6
...
2025 06 01    10 10 22.7 +87 36 15   5.1667  4.8741    67.8    11.1  19.5
...
2025 06 16    09 40 12.3 +84 04 32   5.1489  4.7894    63.9    11.0  19.5

(MPEC 2025-K05、CBET 5555)

フラット表示 前のトピック | 次のトピック

題名 投稿者 日時
 » Comet C/2025 J1 (Borisov) 佐藤裕久 2025-5-20 8:01

投稿するにはまず登録を
 
© 1999 Tsutomu Seki.